EW3693 Weather Reports


Display with metric or nautical units.
time (UTC)temp
F
wind
direction
speed
MPH
gust
MPH
rain 1hr
in
rain 24hr
in
rain mn
in
humidity
%
barometer
mb
20260831121538 76 0 12.0 19.0 0.00 0.08 0.01 68 1008.8
20260831120517 77 0 10.0 16.0 0.00 0.08 0.01 70 1008.8
20260831115538 75 0 12.0 23.0 0.00 0.08 0.01 71 1008.9
20260831114518 75 0 13.0 20.0 0.00 0.08 0.01 72 1009.0
20260831113517 73 0 11.0 17.0 0.00 0.08 0.01 79 1008.9
20260831112518 71 0 11.0 18.0 0.00 0.08 0.01 74 1009.0
20260831111518 74 0 13.0 23.0 0.00 0.08 0.01 71 1009.1
20260831110518 74 0 12.0 18.0 0.01 0.08 0.01 74 1009.0
20260831105517 75 0 8.0 14.0 0.01 0.08 0.01 73 1009.0
20260831104517 74 0 10.0 19.0 0.01 0.08 0.01 73 1009.1
20260831103517 74 0 11.0 20.0 0.01 0.08 0.01 72 1009.2
20260831102517 74 0 7.0 14.0 0.01 0.08 0.01 73 1009.3
20260831101517 72 0 8.0 14.0 0.01 0.08 0.01 75 1009.3
20260831100537 73 0 10.0 18.0 0.00 0.07 0.00 75 1009.4
20260831095517 73 0 14.0 18.0 0.00 0.07 0.00 77 1009.4
20260831094557 74 0 9.0 16.0 0.00 0.07 0.00 78 1009.5
20260831093517 72 0 8.0 14.0 0.00 0.07 0.00 80 1009.5
20260831092517 72 0 6.0 13.0 0.00 0.07 0.00 82 1009.5
20260831091517 71 0 7.0 14.0 0.00 0.07 0.00 81 1009.5
20260831090538 69 0 6.0 11.0 0.00 0.07 0.00 82 1009.5
20260831085517 69 0 6.0 11.0 0.00 0.07 0.00 86 1009.6
20260831084517 67 0 4.0 9.0 0.00 0.07 0.00 87 1009.6
20260831083517 66 0 4.0 10.0 0.00 0.07 0.00 88 1009.6
20260831082537 65 0 4.0 9.0 0.00 0.07 0.00 89 1009.4
20260831081517 65 0 6.0 13.0 0.00 0.07 0.00 88 1009.6
20260831080517 65 0 6.0 14.0 0.00 0.07 0.00 88 1009.6
20260831075517 66 0 5.0 10.0 0.00 0.07 0.00 87 1009.6
20260831074517 65 180 4.0 9.0 0.00 0.07 0.00 92 1009.6
20260831073517 64 180 4.0 10.0 0.00 0.07 0.00 93 1009.5
20260831072517 63 180 4.0 10.0 0.00 0.07 0.00 95 1009.5
20260831071537 63 180 5.0 9.0 0.00 0.07 0.00 95 1009.5
20260831070537 63 180 5.0 10.0 0.00 0.07 0.00 96 1009.6
20260831065517 63 180 5.0 9.0 0.00 0.07 0.00 97 1009.6
20260831064517 62 158 4.0 6.0 0.00 0.07 0.00 99 1009.4
20260831063537 60 158 2.0 5.0 0.00 0.07 0.00 98 1009.5
20260831062537 60 158 3.0 6.0 0.00 0.07 0.00 98 1009.5
20260831061517 60 180 3.0 6.0 0.00 0.07 0.00 99 1009.7
20260831060557 60 158 3.0 6.0 0.00 0.07 0.00 99 1009.7
20260831055517 59 158 3.0 6.0 0.00 0.07 0.00 99 1009.6
20260831054537 59 135 1.0 2.0 0.00 0.07 0.00 99 1009.5
20260831053517 58 135 1.0 2.0 0.00 0.07 0.00 99 1009.5
20260831052517 58 135 1.0 3.0 0.00 0.07 0.00 99 1009.4
20260831051517 58 158 2.0 4.0 0.00 0.07 0.00 99 1009.6
20260831050517 58 158 1.0 4.0 0.00 0.07 0.00 99 1009.8
20260831045537 58 158 1.0 2.0 0.00 0.07 0.00 99 1010.0
20260831044517 58 158 1.0 4.0 0.00 0.07 0.00 99 1009.9
20260831043517 59 158 2.0 5.0 0.00 0.07 0.00 99 1009.7
20260831042516 59 158 2.0 4.0 0.00 0.07 0.00 99 1009.6
20260831041537 59 158 2.0 4.0 0.00 0.07 0.00 99 1009.8
20260831040517 59 180 1.0 4.0 0.00 0.07 0.00 99 1009.8
20260831035516 59 180 1.0 2.0 0.00 0.07 0.00 99 1010.0
20260831034516 59 180 1.0 3.0 0.00 0.07 0.00 99 1010.2
20260831033517 59 158 1.0 5.0 0.00 0.07 0.00 99 1010.4
20260831032517 59 158 2.0 3.0 0.00 0.07 0.00 99 1010.3
20260831031516 59 158 2.0 5.0 0.00 0.07 0.00 99 1010.5
20260831030517 59 158 3.0 5.0 0.00 0.07 0.00 99 1010.5
20260831025536 59 158 1.0 2.0 0.00 0.07 0.00 99 1010.7
20260831024516 60 180 2.0 5.0 0.00 0.07 0.00 99 1010.9
20260831023537 59 180 1.0 3.0 0.00 0.07 0.00 99 1011.0
20260831022537 59 180 3.0 6.0 0.00 0.07 0.00 99 1011.1
20260831021517 60 180 3.0 5.0 0.00 0.07 0.00 99 1011.0
20260831020537 60 180 1.0 4.0 0.00 0.07 0.00 99 1010.9
20260831015516 60 180 1.0 2.0 0.00 0.07 0.00 99 1010.8
20260831014516 60 180 1.0 4.0 0.00 0.07 0.00 99 1010.8
20260831013519 60 0.0 2.0 0.00 0.07 0.00 99 1010.8
20260831012518 61 180 1.0 2.0 0.00 0.07 0.00 99 1010.8
20260831011518 61 180 1.0 2.0 0.00 0.07 0.00 99 1010.9
20260831010518 61 180 1.0 2.0 0.00 0.07 0.00 99 1011.1
20260831005518 61 180 1.0 4.0 0.00 0.07 0.00 99 1011.2
20260831004518 61 180 2.0 4.0 0.00 0.07 0.00 99 1011.4
20260831003518 61 180 1.0 3.0 0.00 0.07 0.00 99 1011.5
20260831002518 62 180 1.0 2.0 0.00 0.07 0.00 99 1011.5
20260831001518 62 180 2.0 5.0 0.00 0.07 0.00 99 1011.7
20260831000538 62 203 1.0 4.0 0.00 0.07 0.00 98 1011.7
20260830235518 62 203 1.0 3.0 0.00 0.07 0.00 99 1011.7
20260830234517 62 225 1.0 3.0 0.00 0.07 0.00 99 1011.7
20260830233518 62 225 1.0 3.0 0.00 0.07 0.00 99 1011.7
20260830232518 62 225 1.0 3.0 0.00 0.07 0.00 98 1011.8
20260830231518 62 248 1.0 3.0 0.00 0.07 0.00 98 1011.8
20260830230518 62 0.0 1.0 0.00 0.07 0.00 98 1011.8
20260830225518 62 0.0 2.0 0.00 0.07 0.00 98 1011.9
20260830224518 62 0.0 0.0 0.00 0.07 0.00 98 1011.9
20260830223518 62 0.0 1.0 0.00 0.07 0.00 98 1012.0
20260830222538 62 0.0 2.0 0.00 0.07 0.00 98 1011.9
20260830221518 62 248 1.0 2.0 0.00 0.07 0.00 98 1011.9
20260830220518 62 248 3.0 5.0 0.00 0.07 0.00 98 1011.9
20260830215518 62 225 3.0 5.0 0.00 0.07 0.07 98 1012.1
20260830214518 62 225 4.0 6.0 0.00 0.07 0.07 98 1012.2
20260830213518 62 203 2.0 3.0 0.00 0.07 0.07 98 1012.2
20260830212518 62 180 2.0 3.0 0.00 0.07 0.07 98 1012.1
20260830211517 62 0.0 2.0 0.01 0.07 0.07 98 1011.9
20260830210518 62 180 1.0 2.0 0.01 0.07 0.07 98 1011.8
20260830205518 62 203 1.0 3.0 0.01 0.07 0.07 98 1012.0
20260830204518 62 203 2.0 4.0 0.01 0.07 0.07 98 1012.0
20260830203518 63 225 3.0 6.0 0.01 0.07 0.07 98 1012.0
20260830202538 63 225 4.0 9.0 0.01 0.07 0.07 98 1012.0
20260830201518 63 225 4.0 8.0 0.00 0.06 0.06 98 1012.0
20260830200518 63 225 4.0 8.0 0.00 0.06 0.06 98 1012.0
20260830195518 63 225 4.0 9.0 0.00 0.06 0.06 98 1012.0
20260830194518 63 225 5.0 10.0 0.00 0.06 0.06 98 1012.1
20260830193517 63 0 6.0 10.0 0.00 0.06 0.06 98 1012.0
20260830192517 63 0 5.0 8.0 0.01 0.06 0.06 98 1012.1
20260830191518 63 248 5.0 8.0 0.01 0.06 0.06 98 1012.1
20260830190518 63 0 5.0 9.0 0.02 0.06 0.06 98 1012.1
20260830185517 62 0 5.0 8.0 0.02 0.06 0.06 98 1011.9
20260830184518 62 0 7.0 11.0 0.02 0.06 0.06 97 1011.8
20260830183537 62 0 9.0 13.0 0.02 0.06 0.06 97 1011.8
20260830182517 62 0 6.0 10.0 0.03 0.06 0.06 97 1011.6
20260830181517 62 0 9.0 12.0 0.04 0.06 0.06 97 1011.4
20260830180517 63 0 10.0 16.0 0.03 0.05 0.05 97 1011.3
20260830175518 63 0 8.0 13.0 0.04 0.05 0.05 97 1011.3
20260830174518 63 0 8.0 11.0 0.04 0.05 0.05 97 1011.1
20260830173518 63 0 12.0 15.0 0.04 0.05 0.05 97 1011.1
20260830172537 63 0 12.0 15.0 0.02 0.02 0.02 96 1011.1
20260830171518 63 0 11.0 14.0 0.02 0.02 0.02 96 1011.1
20260830170517 64 0 13.0 19.0 0.02 0.02 0.02 96 1011.0
20260830165517 64 0 10.0 14.0 0.01 0.01 0.01 96 1011.0
20260830164538 64 0 10.0 14.0 0.01 0.01 0.01 96 1010.8
20260830163517 65 0 10.0 14.0 0.01 0.01 0.01 96 1010.8
20260830162517 64 0 11.0 14.0 0.01 0.01 0.01 96 1010.6
20260830161517 65 0 10.0 14.0 0.00 0.00 0.00 95 1010.6
20260830160517 65 0 11.0 14.0 0.00 0.00 0.00 96 1010.5
20260830155517 65 0 12.0 17.0 0.00 0.00 0.00 95 1010.5
20260830154517 64 0 14.0 18.0 0.00 0.00 0.00 94 1010.5
20260830153537 65 0 17.0 21.0 0.00 0.00 0.00 93 1010.4
20260830152517 65 0 17.0 24.0 0.00 0.00 0.00 90 1010.3
20260830151517 68 0 22.0 28.0 0.00 0.00 0.00 84 1010.4
20260830150517 69 0 14.0 24.0 0.00 0.00 0.00 80 1009.8
20260830145517 70 0 12.0 18.0 0.00 0.00 0.00 80 1009.6
20260830144517 70 0 11.0 19.0 0.00 0.00 0.00 79 1009.5
20260830143517 71 0 12.0 20.0 0.00 0.00 0.00 78 1009.4
20260830142517 70 0 18.0 25.0 0.00 0.00 0.00 79 1009.4
20260830141537 71 0 13.0 20.0 0.00 0.00 0.00 77 1009.2
20260830140517 72 0 15.0 23.0 0.00 0.00 0.00 76 1009.2
20260830135517 71 0 17.0 25.0 0.00 0.00 0.00 79 1009.2
20260830134537 70 0 13.0 22.0 0.00 0.00 0.00 79 1009.2
20260830133517 70 0 11.0 18.0 0.00 0.00 0.00 79 1009.0
20260830132517 70 0 14.0 22.0 0.00 0.00 0.00 78 1008.9
20260830131517 71 0 13.0 20.0 0.00 0.00 0.00 77 1008.8
20260830130537 72 0 14.0 24.0 0.00 0.00 0.00 76 1008.8
20260830125537 70 0 15.0 26.0 0.00 0.00 0.00 80 1008.7
20260830124517 69 0 13.0 26.0 0.00 0.00 0.00 79 1008.7
20260830123537 69 0 15.0 23.0 0.00 0.00 0.00 79 1008.7
20260830122517 70 0 14.0 25.0 0.00 0.00 0.00 78 1008.6